GEFSMW_prec_meanprecacc_180.txt.gz
Total_Precipitation_Accumulation
0.08 0.13 0.19 0.27 0.31 0.32 0.38 0.50 0.61 0.75 0.80 0.86 0.85 0.82 0.86 0.85 0.78 0.72 0.73 0.80 0.74 0.64 0.63 0.65 0.63 0.57 0.54 0.51 0.46 0.41 0.36 0.31 0.28 0.29 0.29 0.25 0.21 0.19 0.16 0.13 0.11 0.09 0.09
0.09 0.14 0.19 0.25 0.29 0.33 0.37 0.48 0.62 0.73 0.77 0.77 0.83 0.81 0.83 0.82 0.82 0.77 0.76 0.81 0.85 0.77 0.68 0.65 0.65 0.63 0.57 0.53 0.47 0.44 0.43 0.39 0.32 0.31 0.34 0.33 0.29 0.23 0.17 0.14 0.12 0.10 0.09
0.11 0.15 0.19 0.22 0.25 0.30 0.34 0.40 0.56 0.73 0.79 0.76 0.86 0.92 0.98 1.01 0.96 0.89 0.82 0.83 0.86 0.82 0.75 0.68 0.63 0.63 0.61 0.57 0.52 0.48 0.44 0.43 0.37 0.30 0.40 0.49 0.38 0.24 0.17 0.14 0.12 0.10 0.09
0.13 0.17 0.21 0.25 0.27 0.32 0.36 0.38 0.47 0.62 0.81 0.84 0.86 0.91 0.95 0.95 0.96 0.90 0.82 0.82 0.87 0.89 0.81 0.77 0.71 0.63 0.58 0.54 0.52 0.51 0.48 0.48 0.46 0.37 0.33 0.36 0.37 0.41 0.29 0.18 0.18 0.17 0.14
0.15 0.19 0.23 0.29 0.32 0.39 0.46 0.45 0.49 0.57 0.76 0.79 0.77 0.84 0.87 0.87 0.92 0.97 0.88 0.86 0.90 0.93 0.93 0.87 0.82 0.77 0.67 0.57 0.52 0.51 0.53 0.52 0.49 0.44 0.38 0.33 0.28 0.30 0.40 0.29 0.22 0.26 0.25
0.17 0.21 0.27 0.34 0.39 0.44 0.55 0.54 0.57 0.57 0.68 0.81 0.75 0.75 0.79 0.82 0.87 0.92 0.96 0.95 0.96 0.95 0.95 0.92 0.87 0.82 0.79 0.71 0.60 0.53 0.52 0.52 0.48 0.45 0.44 0.44 0.43 0.35 0.37 0.36 0.24 0.22 0.21
0.19 0.23 0.30 0.38 0.40 0.43 0.56 0.59 0.59 0.62 0.62 0.76 0.80 0.74 0.74 0.77 0.78 0.84 0.87 0.92 0.98 0.96 0.94 0.94 0.89 0.83 0.78 0.75 0.70 0.64 0.60 0.56 0.55 0.52 0.47 0.45 0.43 0.40 0.44 0.49 0.39 0.30 0.22
0.18 0.22 0.26 0.33 0.38 0.38 0.49 0.59 0.61 0.64 0.62 0.70 0.82 0.82 0.79 0.81 0.76 0.79 0.85 0.85 0.87 0.88 0.83 0.85 0.83 0.78 0.73 0.72 0.72 0.70 0.64 0.63 0.62 0.57 0.54 0.54 0.47 0.48 0.54 0.62 0.68 0.60 0.35
0.21 0.23 0.25 0.28 0.31 0.37 0.43 0.51 0.62 0.68 0.68 0.68 0.80 0.94 0.98 0.90 0.81 0.75 0.77 0.79 0.77 0.78 0.79 0.78 0.79 0.73 0.68 0.67 0.65 0.65 0.62 0.62 0.60 0.60 0.61 0.61 0.55 0.54 0.56 0.61 0.77 0.96 0.77
0.25 0.28 0.28 0.30 0.32 0.34 0.40 0.45 0.57 0.67 0.71 0.68 0.74 0.88 1.09 1.10 0.95 0.87 0.76 0.74 0.73 0.73 0.75 0.76 0.75 0.74 0.68 0.66 0.64 0.61 0.59 0.59 0.57 0.58 0.63 0.63 0.60 0.57 0.56 0.61 0.66 0.79 0.91
0.20 0.24 0.27 0.33 0.36 0.35 0.40 0.44 0.50 0.60 0.67 0.64 0.68 0.77 0.93 1.14 1.14 1.02 0.87 0.77 0.74 0.72 0.71 0.72 0.73 0.72 0.72 0.71 0.70 0.63 0.59 0.60 0.57 0.57 0.61 0.62 0.63 0.65 0.59 0.61 0.65 0.66 0.72
0.16 0.19 0.23 0.32 0.36 0.37 0.39 0.41 0.47 0.54 0.61 0.62 0.64 0.71 0.77 0.94 1.14 1.08 0.93 0.83 0.79 0.75 0.75 0.73 0.76 0.73 0.74 0.74 0.74 0.69 0.61 0.60 0.58 0.57 0.59 0.60 0.59 0.62 0.59 0.59 0.60 0.59 0.56
0.16 0.18 0.24 0.29 0.33 0.39 0.42 0.41 0.43 0.50 0.55 0.61 0.64 0.63 0.68 0.76 0.88 1.03 0.97 0.88 0.82 0.76 0.73 0.73 0.77 0.82 0.83 0.77 0.70 0.71 0.67 0.62 0.59 0.59 0.63 0.62 0.63 0.63 0.59 0.60 0.57 0.50 0.47
0.16 0.21 0.24 0.26 0.31 0.38 0.45 0.44 0.46 0.49 0.48 0.55 0.62 0.58 0.57 0.64 0.68 0.81 0.98 0.98 0.88 0.80 0.72 0.68 0.72 0.82 0.98 0.95 0.83 0.84 0.78 0.68 0.62 0.57 0.56 0.61 0.70 0.69 0.67 0.70 0.61 0.55 0.59
0.15 0.22 0.25 0.25 0.31 0.40 0.49 0.51 0.47 0.43 0.41 0.45 0.52 0.54 0.55 0.62 0.65 0.66 0.79 0.96 0.90 0.77 0.70 0.66 0.67 0.74 1.07 1.40 1.33 1.25 1.03 0.76 0.61 0.53 0.52 0.58 0.70 0.75 0.89 1.00 0.89 0.86 0.95
0.17 0.21 0.25 0.25 0.31 0.38 0.47 0.56 0.49 0.44 0.37 0.39 0.44 0.47 0.53 0.65 0.67 0.64 0.69 0.79 0.86 0.81 0.72 0.67 0.64 0.65 0.92 1.46 1.52 1.25 0.91 0.74 0.63 0.56 0.51 0.52 0.63 0.66 0.76 0.91 0.99 1.06 1.19
0.21 0.22 0.25 0.29 0.34 0.37 0.45 0.53 0.50 0.46 0.38 0.36 0.41 0.43 0.46 0.59 0.66 0.66 0.71 0.73 0.76 0.82 0.81 0.69 0.61 0.57 0.70 1.25 1.36 1.07 0.80 0.68 0.61 0.55 0.53 0.53 0.60 0.67 0.70 0.77 0.80 0.83 0.97
0.22 0.23 0.26 0.32 0.32 0.34 0.36 0.42 0.44 0.42 0.39 0.37 0.42 0.44 0.44 0.48 0.59 0.68 0.68 0.67 0.68 0.69 0.73 0.71 0.64 0.57 0.58 1.06 1.21 0.98 0.77 0.67 0.58 0.51 0.52 0.52 0.55 0.67 0.87 0.88 0.82 0.72 0.75
0.22 0.22 0.25 0.29 0.28 0.29 0.29 0.35 0.38 0.35 0.36 0.42 0.46 0.45 0.41 0.42 0.50 0.58 0.62 0.64 0.65 0.59 0.59 0.64 0.63 0.58 0.55 0.83 1.08 0.96 0.77 0.70 0.62 0.52 0.50 0.51 0.53 0.69 0.94 0.96 0.84 0.67 0.60
0.18 0.20 0.22 0.21 0.24 0.27 0.28 0.32 0.33 0.28 0.31 0.38 0.45 0.41 0.37 0.34 0.34 0.43 0.56 0.61 0.62 0.58 0.55 0.58 0.59 0.55 0.51 0.69 0.92 0.96 0.78 0.70 0.64 0.60 0.52 0.57 0.67 0.79 0.93 0.89 0.87 0.94 0.75
0.13 0.16 0.18 0.19 0.24 0.26 0.24 0.28 0.31 0.29 0.29 0.36 0.41 0.37 0.33 0.32 0.32 0.37 0.50 0.58 0.64 0.65 0.58 0.54 0.55 0.53 0.52 0.61 0.76 0.97 0.84 0.70 0.67 0.68 0.63 0.57 0.74 0.81 0.87 0.93 0.93 1.13 1.05
0.11 0.11 0.14 0.17 0.21 0.23 0.23 0.28 0.33 0.31 0.32 0.34 0.31 0.31 0.31 0.32 0.34 0.37 0.46 0.57 0.64 0.68 0.63 0.56 0.53 0.51 0.52 0.60 0.73 0.89 0.92 0.84 0.71 0.63 0.54 0.57 0.75 0.85 0.92 0.91 0.97 1.08 1.04
0.14 0.12 0.13 0.16 0.20 0.23 0.23 0.28 0.33 0.31 0.32 0.31 0.29 0.27 0.29 0.31 0.32 0.40 0.49 0.58 0.64 0.66 0.64 0.59 0.55 0.52 0.51 0.60 0.77 0.77 0.82 0.87 0.75 0.63 0.69 0.76 0.85 0.87 0.80 0.82 0.90 0.90 0.85
0.16 0.15 0.15 0.17 0.23 0.24 0.23 0.27 0.31 0.29 0.27 0.26 0.28 0.28 0.31 0.35 0.37 0.41 0.48 0.55 0.63 0.68 0.61 0.56 0.54 0.51 0.54 0.70 0.83 0.78 0.77 0.85 0.86 0.81 0.83 0.89 0.89 0.80 0.70 0.70 0.71 0.69 0.75
0.19 0.18 0.17 0.18 0.24 0.27 0.28 0.30 0.27 0.25 0.24 0.24 0.29 0.35 0.36 0.40 0.44 0.45 0.46 0.50 0.52 0.64 0.62 0.53 0.54 0.60 0.68 0.83 0.93 0.90 0.85 0.86 0.89 1.01 1.09 1.00 0.91 0.85 0.72 0.61 0.53 0.55 0.68
0.21 0.19 0.19 0.21 0.26 0.29 0.34 0.33 0.25 0.21 0.24 0.27 0.31 0.37 0.41 0.42 0.44 0.43 0.44 0.50 0.52 0.56 0.55 0.50 0.52 0.53 0.68 0.83 0.87 0.92 0.92 0.95 1.04 1.14 1.09 0.87 0.74 0.69 0.64 0.59 0.55 0.51 0.53

GEFSMW_prec_meanprecacc_186.txt.gz
Total_Precipitation_Accumulation
0.08 0.13 0.19 0.27 0.31 0.32 0.38 0.50 0.61 0.75 0.80 0.86 0.85 0.83 0.89 0.88 0.81 0.74 0.77 0.85 0.78 0.67 0.65 0.67 0.66 0.61 0.58 0.56 0.54 0.50 0.47 0.44 0.40 0.39 0.37 0.32 0.26 0.24 0.20 0.15 0.13 0.11 0.11
0.09 0.14 0.19 0.25 0.29 0.33 0.37 0.48 0.62 0.73 0.77 0.77 0.83 0.82 0.85 0.85 0.86 0.81 0.80 0.85 0.89 0.81 0.70 0.67 0.68 0.68 0.62 0.58 0.54 0.53 0.56 0.54 0.46 0.43 0.44 0.43 0.38 0.29 0.21 0.17 0.14 0.12 0.11
0.11 0.15 0.19 0.22 0.25 0.30 0.34 0.40 0.56 0.73 0.79 0.77 0.87 0.94 1.01 1.05 1.01 0.93 0.85 0.86 0.89 0.86 0.79 0.72 0.66 0.69 0.67 0.64 0.58 0.55 0.54 0.57 0.51 0.42 0.50 0.59 0.46 0.29 0.21 0.17 0.15 0.12 0.11
0.13 0.18 0.21 0.25 0.27 0.32 0.36 0.38 0.47 0.63 0.82 0.84 0.87 0.93 0.98 0.99 1.03 0.95 0.86 0.85 0.90 0.92 0.86 0.83 0.76 0.69 0.66 0.62 0.59 0.58 0.56 0.60 0.61 0.50 0.43 0.44 0.44 0.46 0.33 0.21 0.20 0.19 0.17
0.15 0.20 0.23 0.29 0.32 0.39 0.46 0.45 0.49 0.57 0.76 0.79 0.78 0.86 0.89 0.91 0.99 1.02 0.95 0.92 0.93 0.97 0.97 0.94 0.89 0.83 0.74 0.64 0.59 0.59 0.61 0.62 0.63 0.57 0.48 0.41 0.34 0.35 0.45 0.33 0.26 0.30 0.28
0.17 0.21 0.27 0.34 0.39 0.44 0.55 0.54 0.58 0.58 0.69 0.82 0.77 0.77 0.81 0.86 0.92 0.98 1.03 1.02 1.01 1.00 1.00 1.00 0.94 0.88 0.86 0.78 0.67 0.62 0.63 0.62 0.60 0.59 0.55 0.53 0.51 0.41 0.43 0.42 0.28 0.26 0.25
0.19 0.23 0.30 0.38 0.40 0.43 0.57 0.59 0.60 0.62 0.63 0.77 0.83 0.76 0.77 0.80 0.81 0.88 0.92 0.98 1.03 1.01 1.00 1.01 0.96 0.89 0.84 0.83 0.78 0.73 0.69 0.67 0.67 0.65 0.61 0.57 0.53 0.48 0.51 0.55 0.44 0.34 0.26
0.18 0.22 0.27 0.34 0.39 0.39 0.50 0.60 0.62 0.65 0.63 0.71 0.84 0.84 0.82 0.84 0.79 0.83 0.90 0.89 0.91 0.92 0.88 0.90 0.89 0.84 0.79 0.78 0.80 0.79 0.74 0.74 0.76 0.72 0.70 0.68 0.58 0.57 0.62 0.69 0.74 0.65 0.39
0.21 0.23 0.26 0.29 0.32 0.38 0.44 0.51 0.63 0.68 0.69 0.69 0.82 0.95 1.00 0.92 0.83 0.80 0.83 0.84 0.81 0.81 0.83 0.82 0.83 0.78 0.74 0.72 0.72 0.73 0.72 0.75 0.76 0.77 0.79 0.78 0.68 0.66 0.67 0.70 0.84 1.04 0.85
0.25 0.28 0.28 0.31 0.32 0.34 0.41 0.45 0.57 0.68 0.72 0.69 0.76 0.90 1.11 1.12 0.99 0.93 0.83 0.80 0.78 0.77 0.79 0.81 0.79 0.79 0.75 0.73 0.72 0.69 0.66 0.71 0.72 0.73 0.79 0.81 0.76 0.70 0.67 0.71 0.74 0.88 1.01
0.20 0.24 0.27 0.33 0.37 0.36 0.40 0.45 0.51 0.61 0.68 0.66 0.71 0.81 0.97 1.19 1.20 1.10 0.98 0.84 0.79 0.76 0.75 0.76 0.77 0.77 0.79 0.79 0.81 0.74 0.67 0.69 0.70 0.70 0.73 0.75 0.75 0.77 0.69 0.69 0.71 0.73 0.80
0.17 0.19 0.24 0.32 0.37 0.38 0.40 0.43 0.48 0.56 0.63 0.64 0.68 0.75 0.82 0.99 1.21 1.15 1.03 0.91 0.84 0.80 0.79 0.78 0.80 0.79 0.80 0.82 0.85 0.81 0.71 0.69 0.69 0.67 0.68 0.69 0.68 0.71 0.65 0.64 0.65 0.64 0.62
0.17 0.19 0.24 0.29 0.34 0.40 0.43 0.42 0.45 0.52 0.57 0.63 0.67 0.68 0.74 0.83 0.95 1.10 1.05 0.96 0.89 0.83 0.79 0.79 0.82 0.87 0.88 0.84 0.80 0.82 0.76 0.71 0.67 0.66 0.68 0.68 0.69 0.70 0.64 0.64 0.61 0.54 0.51
0.16 0.21 0.25 0.27 0.31 0.39 0.46 0.45 0.48 0.51 0.50 0.57 0.64 0.62 0.62 0.70 0.75 0.87 1.04 1.05 0.96 0.87 0.78 0.74 0.78 0.89 1.04 1.03 0.92 0.95 0.87 0.75 0.68 0.62 0.60 0.65 0.75 0.74 0.72 0.74 0.64 0.58 0.62
0.16 0.22 0.26 0.27 0.32 0.41 0.50 0.52 0.49 0.45 0.42 0.46 0.55 0.58 0.62 0.69 0.71 0.71 0.83 1.01 0.98 0.85 0.75 0.70 0.72 0.81 1.15 1.48 1.43 1.35 1.10 0.82 0.67 0.59 0.58 0.63 0.76 0.80 0.93 1.03 0.92 0.90 0.99
0.19 0.22 0.26 0.27 0.33 0.41 0.50 0.59 0.52 0.46 0.40 0.42 0.49 0.53 0.61 0.72 0.74 0.70 0.74 0.84 0.92 0.88 0.77 0.71 0.68 0.71 0.99 1.54 1.61 1.34 0.98 0.79 0.68 0.61 0.56 0.57 0.69 0.71 0.79 0.94 1.02 1.09 1.22
0.23 0.24 0.27 0.31 0.37 0.40 0.48 0.56 0.54 0.50 0.42 0.42 0.47 0.51 0.53 0.66 0.73 0.72 0.77 0.79 0.82 0.87 0.87 0.74 0.65 0.62 0.77 1.31 1.42 1.14 0.85 0.72 0.66 0.59 0.57 0.57 0.64 0.70 0.72 0.80 0.83 0.86 1.00
0.24 0.25 0.28 0.35 0.35 0.38 0.40 0.46 0.49 0.47 0.44 0.44 0.49 0.53 0.50 0.54 0.66 0.75 0.75 0.75 0.74 0.75 0.80 0.76 0.68 0.61 0.64 1.11 1.27 1.03 0.80 0.70 0.62 0.54 0.55 0.54 0.57 0.69 0.89 0.90 0.85 0.76 0.79
0.23 0.25 0.29 0.33 0.34 0.35 0.34 0.40 0.44 0.41 0.44 0.50 0.52 0.51 0.47 0.47 0.56 0.65 0.69 0.71 0.70 0.64 0.65 0.69 0.68 0.63 0.60 0.88 1.13 1.00 0.79 0.73 0.65 0.54 0.51 0.52 0.54 0.70 0.96 0.99 0.88 0.71 0.64
0.20 0.23 0.26 0.26 0.30 0.33 0.33 0.37 0.40 0.36 0.39 0.45 0.51 0.47 0.42 0.39 0.40 0.49 0.62 0.67 0.68 0.63 0.60 0.62 0.63 0.59 0.54 0.72 0.96 1.00 0.80 0.72 0.66 0.61 0.54 0.59 0.69 0.82 0.96 0.93 0.91 0.97 0.78
0.17 0.20 0.23 0.24 0.29 0.32 0.30 0.34 0.38 0.36 0.36 0.41 0.46 0.42 0.39 0.39 0.38 0.43 0.55 0.63 0.69 0.70 0.62 0.58 0.59 0.57 0.55 0.64 0.79 1.00 0.87 0.72 0.68 0.69 0.64 0.59 0.75 0.83 0.89 0.96 0.95 1.16 1.08
0.14 0.14 0.17 0.20 0.25 0.28 0.27 0.33 0.38 0.37 0.38 0.39 0.37 0.36 0.37 0.38 0.39 0.42 0.50 0.61 0.68 0.72 0.66 0.59 0.57 0.56 0.55 0.64 0.77 0.93 0.96 0.87 0.73 0.65 0.55 0.58 0.76 0.86 0.94 0.93 0.99 1.10 1.07
0.16 0.15 0.16 0.18 0.23 0.26 0.26 0.32 0.37 0.35 0.36 0.36 0.34 0.32 0.34 0.36 0.37 0.43 0.52 0.61 0.67 0.68 0.67 0.62 0.58 0.55 0.54 0.64 0.81 0.80 0.85 0.90 0.78 0.65 0.71 0.77 0.86 0.88 0.81 0.83 0.92 0.92 0.88
0.17 0.16 0.16 0.18 0.24 0.26 0.26 0.30 0.33 0.31 0.29 0.29 0.32 0.31 0.34 0.38 0.41 0.44 0.50 0.57 0.65 0.71 0.64 0.59 0.56 0.54 0.56 0.73 0.85 0.80 0.80 0.88 0.88 0.83 0.85 0.91 0.90 0.82 0.71 0.72 0.74 0.72 0.78
0.20 0.18 0.18 0.19 0.25 0.28 0.30 0.32 0.29 0.27 0.26 0.26 0.32 0.37 0.38 0.42 0.46 0.47 0.49 0.53 0.55 0.67 0.66 0.56 0.57 0.62 0.71 0.86 0.96 0.93 0.89 0.90 0.92 1.04 1.11 1.02 0.92 0.86 0.74 0.63 0.56 0.58 0.71
0.22 0.20 0.20 0.21 0.26 0.30 0.35 0.34 0.27 0.23 0.25 0.29 0.33 0.39 0.42 0.44 0.45 0.44 0.46 0.52 0.55 0.59 0.58 0.54 0.55 0.56 0.72 0.86 0.90 0.95 0.96 0.99 1.07 1.16 1.11 0.90 0.76 0.71 0.67 0.63 0.59 0.55 0.56

GEFSMW_prec_meanprecacc_192.txt.gz
Total_Precipitation_Accumulation
0.08 0.13 0.19 0.27 0.31 0.32 0.38 0.50 0.61 0.75 0.80 0.86 0.85 0.83 0.89 0.88 0.82 0.75 0.78 0.87 0.81 0.71 0.70 0.71 0.71 0.67 0.63 0.59 0.56 0.53 0.50 0.47 0.44 0.44 0.42 0.37 0.34 0.33 0.27 0.21 0.18 0.17 0.16
0.09 0.14 0.19 0.25 0.29 0.33 0.37 0.48 0.62 0.73 0.77 0.77 0.84 0.82 0.85 0.86 0.87 0.82 0.82 0.88 0.94 0.86 0.76 0.73 0.74 0.72 0.65 0.61 0.56 0.55 0.58 0.57 0.49 0.47 0.50 0.50 0.46 0.39 0.31 0.26 0.20 0.17 0.15
0.11 0.15 0.19 0.22 0.25 0.30 0.34 0.40 0.56 0.74 0.80 0.78 0.88 0.95 1.02 1.06 1.02 0.95 0.88 0.89 0.92 0.90 0.83 0.75 0.69 0.72 0.70 0.66 0.60 0.57 0.57 0.60 0.55 0.46 0.55 0.65 0.54 0.38 0.31 0.27 0.23 0.19 0.16
0.13 0.18 0.21 0.25 0.27 0.32 0.36 0.38 0.47 0.64 0.83 0.86 0.88 0.94 0.98 1.00 1.04 0.96 0.88 0.86 0.91 0.93 0.88 0.85 0.78 0.71 0.68 0.65 0.61 0.60 0.59 0.63 0.64 0.54 0.47 0.49 0.50 0.54 0.43 0.31 0.29 0.28 0.23
0.15 0.20 0.24 0.29 0.32 0.39 0.46 0.45 0.50 0.58 0.78 0.82 0.81 0.87 0.91 0.92 1.00 1.03 0.96 0.92 0.94 0.98 0.99 0.96 0.91 0.85 0.76 0.67 0.62 0.62 0.64 0.65 0.66 0.60 0.52 0.45 0.39 0.41 0.53 0.43 0.35 0.38 0.36
0.17 0.21 0.27 0.34 0.39 0.44 0.55 0.55 0.58 0.58 0.69 0.84 0.80 0.79 0.83 0.86 0.92 0.98 1.03 1.03 1.01 1.01 1.01 1.01 0.96 0.90 0.89 0.81 0.70 0.66 0.67 0.66 0.64 0.64 0.59 0.58 0.56 0.47 0.49 0.48 0.36 0.35 0.34
0.19 0.23 0.30 0.38 0.40 0.43 0.57 0.59 0.60 0.62 0.63 0.78 0.84 0.78 0.78 0.81 0.82 0.89 0.93 0.98 1.04 1.03 1.02 1.03 1.00 0.93 0.88 0.86 0.81 0.77 0.74 0.72 0.73 0.73 0.69 0.64 0.59 0.55 0.59 0.64 0.52 0.42 0.34
0.18 0.22 0.27 0.34 0.39 0.39 0.50 0.60 0.63 0.65 0.64 0.72 0.85 0.85 0.84 0.86 0.80 0.84 0.90 0.91 0.92 0.94 0.90 0.93 0.92 0.88 0.84 0.83 0.85 0.83 0.79 0.80 0.82 0.80 0.79 0.77 0.67 0.65 0.71 0.79 0.86 0.76 0.49
0.21 0.23 0.26 0.29 0.32 0.38 0.45 0.52 0.64 0.70 0.70 0.70 0.83 0.98 1.03 0.95 0.85 0.81 0.85 0.87 0.83 0.84 0.86 0.85 0.86 0.81 0.78 0.76 0.76 0.77 0.76 0.80 0.82 0.83 0.86 0.87 0.78 0.76 0.75 0.80 0.96 1.17 0.97
0.25 0.28 0.28 0.31 0.32 0.34 0.41 0.46 0.58 0.69 0.74 0.71 0.78 0.92 1.14 1.16 1.01 0.94 0.85 0.82 0.80 0.79 0.81 0.83 0.82 0.82 0.78 0.76 0.76 0.72 0.69 0.75 0.78 0.80 0.86 0.88 0.83 0.78 0.76 0.82 0.85 0.98 1.12
0.20 0.24 0.27 0.34 0.37 0.36 0.40 0.45 0.51 0.61 0.69 0.67 0.72 0.82 0.98 1.21 1.22 1.12 0.99 0.85 0.80 0.77 0.77 0.78 0.80 0.80 0.82 0.81 0.84 0.79 0.70 0.73 0.76 0.79 0.82 0.81 0.81 0.83 0.79 0.81 0.83 0.83 0.89
0.17 0.20 0.24 0.32 0.37 0.38 0.40 0.43 0.48 0.56 0.63 0.64 0.68 0.76 0.84 1.02 1.24 1.18 1.04 0.92 0.85 0.81 0.81 0.80 0.82 0.81 0.82 0.84 0.87 0.84 0.75 0.73 0.75 0.77 0.77 0.76 0.76 0.78 0.73 0.74 0.74 0.72 0.68
0.17 0.19 0.25 0.30 0.34 0.40 0.43 0.42 0.45 0.52 0.57 0.63 0.68 0.70 0.78 0.86 0.98 1.12 1.07 0.97 0.91 0.86 0.82 0.82 0.84 0.89 0.90 0.85 0.82 0.84 0.80 0.75 0.74 0.75 0.77 0.76 0.77 0.78 0.71 0.70 0.68 0.61 0.56
0.17 0.22 0.25 0.27 0.32 0.39 0.46 0.45 0.48 0.51 0.50 0.57 0.64 0.63 0.65 0.73 0.78 0.89 1.06 1.07 0.98 0.89 0.81 0.79 0.83 0.93 1.08 1.06 0.94 0.98 0.91 0.80 0.75 0.69 0.67 0.71 0.82 0.81 0.78 0.80 0.70 0.64 0.66
0.16 0.23 0.27 0.27 0.33 0.41 0.50 0.52 0.49 0.45 0.42 0.47 0.55 0.60 0.64 0.72 0.75 0.75 0.86 1.03 1.00 0.87 0.78 0.74 0.77 0.87 1.21 1.54 1.48 1.39 1.15 0.88 0.72 0.65 0.64 0.70 0.82 0.86 0.98 1.07 0.96 0.93 1.02
0.19 0.23 0.28 0.28 0.34 0.41 0.50 0.59 0.52 0.47 0.40 0.42 0.49 0.55 0.64 0.77 0.79 0.74 0.78 0.87 0.95 0.91 0.81 0.74 0.72 0.75 1.03 1.59 1.68 1.40 1.03 0.85 0.74 0.67 0.63 0.64 0.75 0.77 0.85 0.98 1.05 1.12 1.25
0.24 0.25 0.29 0.32 0.38 0.41 0.48 0.57 0.54 0.50 0.42 0.42 0.48 0.53 0.56 0.71 0.77 0.77 0.82 0.83 0.86 0.92 0.92 0.79 0.69 0.66 0.81 1.37 1.48 1.20 0.90 0.77 0.71 0.66 0.63 0.62 0.69 0.75 0.76 0.84 0.86 0.89 1.03
0.25 0.26 0.30 0.37 0.37 0.39 0.41 0.48 0.50 0.48 0.45 0.45 0.51 0.56 0.53 0.58 0.71 0.80 0.80 0.79 0.79 0.80 0.85 0.81 0.72 0.65 0.69 1.17 1.32 1.09 0.86 0.74 0.67 0.60 0.60 0.58 0.61 0.73 0.92 0.93 0.87 0.78 0.80
0.25 0.27 0.31 0.35 0.36 0.36 0.35 0.42 0.47 0.46 0.47 0.52 0.55 0.55 0.51 0.51 0.61 0.69 0.76 0.77 0.76 0.70 0.71 0.74 0.73 0.67 0.65 0.95 1.19 1.05 0.83 0.77 0.68 0.58 0.55 0.55 0.56 0.73 0.99 1.01 0.89 0.73 0.65
0.22 0.25 0.29 0.29 0.32 0.35 0.34 0.40 0.44 0.40 0.44 0.48 0.54 0.51 0.46 0.43 0.44 0.54 0.68 0.74 0.74 0.69 0.67 0.68 0.69 0.63 0.58 0.78 1.03 1.05 0.84 0.75 0.69 0.63 0.56 0.62 0.71 0.84 0.98 0.94 0.92 0.99 0.80
0.18 0.21 0.24 0.26 0.32 0.35 0.32 0.36 0.42 0.41 0.43 0.46 0.51 0.46 0.43 0.44 0.43 0.49 0.61 0.70 0.77 0.77 0.70 0.66 0.66 0.62 0.59 0.69 0.85 1.06 0.90 0.75 0.70 0.71 0.66 0.61 0.78 0.85 0.91 0.97 0.97 1.17 1.10
0.15 0.16 0.19 0.22 0.27 0.29 0.29 0.36 0.41 0.42 0.45 0.46 0.43 0.42 0.44 0.46 0.47 0.50 0.57 0.68 0.76 0.80 0.74 0.66 0.63 0.61 0.60 0.68 0.81 0.97 0.99 0.90 0.75 0.66 0.57 0.60 0.78 0.87 0.95 0.94 1.00 1.11 1.10
0.17 0.17 0.18 0.20 0.24 0.27 0.28 0.34 0.40 0.39 0.42 0.42 0.40 0.39 0.42 0.44 0.46 0.52 0.59 0.68 0.74 0.75 0.72 0.66 0.62 0.59 0.57 0.67 0.84 0.83 0.88 0.92 0.79 0.66 0.73 0.78 0.88 0.90 0.82 0.84 0.93 0.94 0.90
0.18 0.17 0.19 0.21 0.26 0.28 0.28 0.32 0.37 0.35 0.34 0.35 0.38 0.37 0.40 0.45 0.48 0.53 0.57 0.63 0.71 0.76 0.68 0.62 0.59 0.56 0.59 0.75 0.88 0.82 0.82 0.90 0.89 0.84 0.87 0.93 0.91 0.82 0.72 0.73 0.75 0.74 0.80
0.20 0.19 0.20 0.21 0.27 0.30 0.32 0.34 0.32 0.31 0.31 0.31 0.37 0.42 0.44 0.48 0.52 0.54 0.55 0.59 0.60 0.72 0.70 0.60 0.59 0.65 0.74 0.88 0.98 0.95 0.90 0.91 0.94 1.05 1.12 1.03 0.93 0.87 0.75 0.64 0.58 0.60 0.73
0.23 0.21 0.21 0.23 0.28 0.31 0.37 0.37 0.30 0.27 0.29 0.34 0.38 0.45 0.49 0.49 0.50 0.49 0.51 0.57 0.59 0.63 0.62 0.57 0.58 0.58 0.74 0.88 0.92 0.97 0.98 1.01 1.09 1.17 1.12 0.91 0.77 0.73 0.68 0.64 0.60 0.56 0.58

GEFSMW_prec_meanprecacc_198.txt.gz
Total_Precipitation_Accumulation
0.08 0.13 0.19 0.27 0.31 0.32 0.38 0.50 0.61 0.75 0.80 0.86 0.85 0.83 0.89 0.89 0.83 0.76 0.79 0.88 0.82 0.72 0.71 0.73 0.73 0.70 0.68 0.63 0.58 0.54 0.52 0.49 0.45 0.46 0.46 0.41 0.37 0.36 0.30 0.24 0.23 0.22 0.21
0.09 0.14 0.19 0.25 0.29 0.33 0.37 0.48 0.62 0.73 0.77 0.78 0.84 0.82 0.85 0.86 0.87 0.83 0.83 0.90 0.95 0.87 0.77 0.75 0.75 0.74 0.68 0.64 0.59 0.58 0.61 0.59 0.52 0.49 0.53 0.53 0.50 0.42 0.34 0.29 0.24 0.23 0.24
0.11 0.15 0.19 0.22 0.25 0.30 0.34 0.40 0.56 0.74 0.80 0.78 0.88 0.95 1.02 1.06 1.04 0.97 0.89 0.90 0.93 0.91 0.84 0.76 0.70 0.73 0.71 0.68 0.62 0.58 0.59 0.62 0.57 0.48 0.57 0.68 0.58 0.40 0.33 0.30 0.27 0.24 0.23
0.13 0.18 0.21 0.25 0.27 0.32 0.36 0.38 0.47 0.64 0.83 0.86 0.88 0.94 0.99 1.01 1.05 0.98 0.90 0.88 0.92 0.95 0.89 0.87 0.79 0.72 0.70 0.66 0.63 0.61 0.61 0.65 0.66 0.56 0.50 0.51 0.53 0.56 0.45 0.33 0.32 0.32 0.29
0.15 0.20 0.24 0.29 0.32 0.39 0.46 0.45 0.50 0.58 0.78 0.83 0.83 0.88 0.92 0.94 1.02 1.04 0.97 0.94 0.96 1.00 1.00 0.97 0.92 0.86 0.77 0.68 0.63 0.63 0.66 0.68 0.68 0.62 0.54 0.48 0.41 0.44 0.56 0.46 0.39 0.43 0.41
0.17 0.21 0.27 0.34 0.39 0.44 0.55 0.55 0.58 0.58 0.69 0.86 0.84 0.81 0.85 0.88 0.94 0.99 1.05 1.04 1.02 1.02 1.02 1.02 0.97 0.91 0.90 0.82 0.72 0.67 0.68 0.67 0.66 0.66 0.62 0.61 0.60 0.50 0.53 0.51 0.40 0.40 0.40
0.19 0.23 0.30 0.39 0.40 0.43 0.57 0.59 0.60 0.62 0.63 0.78 0.85 0.79 0.79 0.81 0.82 0.90 0.93 0.99 1.05 1.04 1.03 1.04 1.01 0.95 0.90 0.88 0.83 0.78 0.76 0.74 0.75 0.75 0.73 0.68 0.63 0.59 0.64 0.69 0.56 0.46 0.38
0.18 0.22 0.27 0.34 0.39 0.39 0.50 0.60 0.63 0.65 0.64 0.72 0.85 0.87 0.85 0.86 0.81 0.85 0.91 0.92 0.94 0.95 0.91 0.94 0.94 0.91 0.85 0.84 0.85 0.85 0.82 0.83 0.85 0.83 0.83 0.82 0.72 0.70 0.77 0.85 0.93 0.81 0.53
0.21 0.23 0.26 0.29 0.32 0.38 0.45 0.52 0.64 0.70 0.70 0.70 0.83 0.99 1.04 0.96 0.86 0.82 0.87 0.88 0.85 0.86 0.88 0.87 0.88 0.83 0.79 0.77 0.77 0.79 0.78 0.82 0.85 0.87 0.90 0.91 0.83 0.81 0.82 0.87 1.04 1.23 1.02
0.25 0.28 0.28 0.31 0.32 0.34 0.41 0.46 0.58 0.69 0.74 0.71 0.78 0.93 1.15 1.17 1.02 0.96 0.86 0.83 0.82 0.82 0.83 0.86 0.85 0.85 0.79 0.77 0.77 0.74 0.71 0.77 0.80 0.83 0.88 0.90 0.87 0.83 0.82 0.88 0.91 1.04 1.17
0.20 0.24 0.27 0.34 0.37 0.36 0.40 0.45 0.51 0.61 0.69 0.67 0.72 0.82 0.99 1.21 1.23 1.12 1.00 0.86 0.82 0.79 0.78 0.80 0.82 0.82 0.83 0.82 0.86 0.81 0.73 0.75 0.78 0.81 0.84 0.84 0.85 0.88 0.84 0.87 0.90 0.90 0.96
0.17 0.20 0.24 0.32 0.37 0.38 0.40 0.43 0.48 0.56 0.63 0.64 0.68 0.77 0.85 1.02 1.24 1.18 1.05 0.93 0.86 0.82 0.82 0.81 0.83 0.82 0.83 0.85 0.89 0.86 0.77 0.76 0.77 0.79 0.79 0.79 0.79 0.83 0.79 0.80 0.81 0.79 0.75
0.17 0.19 0.25 0.30 0.34 0.40 0.43 0.42 0.45 0.52 0.57 0.64 0.68 0.70 0.78 0.87 0.98 1.13 1.08 0.99 0.92 0.87 0.84 0.84 0.85 0.90 0.91 0.87 0.84 0.86 0.82 0.77 0.77 0.78 0.81 0.79 0.81 0.83 0.77 0.77 0.75 0.68 0.64
0.17 0.22 0.25 0.27 0.32 0.39 0.46 0.45 0.48 0.51 0.50 0.57 0.65 0.64 0.65 0.73 0.78 0.90 1.08 1.09 1.00 0.91 0.83 0.80 0.84 0.94 1.10 1.09 0.97 1.00 0.94 0.83 0.77 0.73 0.72 0.76 0.87 0.88 0.86 0.87 0.76 0.70 0.73
0.16 0.23 0.27 0.27 0.33 0.41 0.50 0.53 0.49 0.45 0.42 0.47 0.55 0.61 0.65 0.72 0.75 0.76 0.87 1.05 1.02 0.88 0.79 0.76 0.79 0.89 1.23 1.58 1.52 1.42 1.19 0.91 0.76 0.68 0.69 0.76 0.89 0.93 1.04 1.13 1.01 0.98 1.07
0.19 0.23 0.28 0.28 0.34 0.41 0.51 0.60 0.53 0.47 0.40 0.43 0.50 0.56 0.65 0.78 0.80 0.75 0.79 0.89 0.97 0.92 0.83 0.77 0.75 0.79 1.06 1.63 1.72 1.44 1.07 0.88 0.77 0.71 0.67 0.69 0.81 0.84 0.91 1.04 1.11 1.18 1.30
0.25 0.26 0.29 0.32 0.38 0.41 0.49 0.57 0.55 0.51 0.43 0.44 0.49 0.54 0.58 0.72 0.79 0.78 0.83 0.84 0.87 0.94 0.95 0.83 0.73 0.70 0.86 1.42 1.53 1.24 0.93 0.79 0.74 0.69 0.67 0.67 0.74 0.81 0.80 0.88 0.91 0.93 1.06
0.26 0.27 0.31 0.37 0.37 0.40 0.42 0.48 0.51 0.49 0.46 0.47 0.53 0.57 0.55 0.60 0.72 0.81 0.82 0.81 0.81 0.83 0.89 0.88 0.79 0.71 0.75 1.22 1.37 1.13 0.88 0.76 0.69 0.63 0.64 0.62 0.65 0.76 0.95 0.95 0.90 0.80 0.83
0.25 0.27 0.31 0.36 0.37 0.36 0.36 0.42 0.48 0.46 0.48 0.53 0.56 0.57 0.52 0.53 0.62 0.71 0.78 0.79 0.79 0.74 0.75 0.80 0.79 0.74 0.71 0.99 1.23 1.08 0.85 0.79 0.71 0.60 0.57 0.58 0.59 0.76 1.02 1.03 0.91 0.75 0.68
0.22 0.26 0.29 0.30 0.33 0.36 0.35 0.40 0.45 0.41 0.45 0.49 0.55 0.52 0.47 0.44 0.45 0.55 0.70 0.77 0.77 0.73 0.71 0.74 0.75 0.69 0.63 0.82 1.06 1.08 0.86 0.77 0.71 0.65 0.58 0.64 0.74 0.88 1.02 0.97 0.94 1.01 0.83
0.19 0.22 0.25 0.27 0.33 0.36 0.33 0.37 0.42 0.41 0.43 0.47 0.52 0.47 0.44 0.44 0.44 0.50 0.63 0.71 0.79 0.81 0.75 0.71 0.72 0.68 0.64 0.73 0.88 1.08 0.92 0.76 0.72 0.72 0.68 0.63 0.80 0.88 0.93 1.00 0.99 1.20 1.13
0.16 0.16 0.19 0.23 0.28 0.31 0.31 0.37 0.43 0.43 0.46 0.47 0.44 0.43 0.45 0.47 0.48 0.51 0.59 0.69 0.78 0.85 0.79 0.71 0.70 0.67 0.64 0.71 0.84 1.00 1.01 0.92 0.76 0.68 0.59 0.62 0.80 0.89 0.97 0.95 1.01 1.13 1.11
0.17 0.17 0.19 0.21 0.26 0.29 0.30 0.37 0.43 0.40 0.43 0.43 0.41 0.40 0.44 0.46 0.48 0.53 0.61 0.69 0.77 0.80 0.79 0.71 0.66 0.64 0.61 0.70 0.87 0.85 0.90 0.95 0.81 0.68 0.75 0.80 0.89 0.91 0.83 0.85 0.94 0.95 0.91
0.18 0.18 0.20 0.22 0.27 0.29 0.29 0.35 0.40 0.37 0.36 0.36 0.40 0.38 0.42 0.47 0.51 0.56 0.61 0.66 0.75 0.81 0.73 0.67 0.63 0.60 0.63 0.79 0.91 0.85 0.84 0.92 0.91 0.86 0.89 0.94 0.92 0.83 0.73 0.74 0.76 0.74 0.81
0.21 0.20 0.21 0.22 0.28 0.31 0.33 0.36 0.35 0.33 0.33 0.33 0.39 0.44 0.46 0.51 0.56 0.59 0.61 0.64 0.66 0.79 0.77 0.66 0.65 0.69 0.78 0.92 1.01 0.98 0.92 0.93 0.95 1.07 1.13 1.04 0.94 0.88 0.76 0.65 0.58 0.61 0.73
0.24 0.22 0.23 0.24 0.29 0.33 0.39 0.38 0.32 0.30 0.32 0.36 0.40 0.47 0.52 0.53 0.54 0.54 0.57 0.64 0.66 0.70 0.69 0.64 0.64 0.63 0.77 0.91 0.95 1.00 1.00 1.03 1.10 1.18 1.13 0.92 0.78 0.74 0.69 0.65 0.60 0.56 0.58

GEFSMW_prec_meanprecacc_204.txt.gz
Total_Precipitation_Accumulation
0.08 0.13 0.19 0.27 0.31 0.32 0.38 0.50 0.62 0.75 0.80 0.86 0.86 0.84 0.90 0.90 0.84 0.76 0.79 0.88 0.83 0.73 0.73 0.74 0.74 0.71 0.68 0.65 0.60 0.55 0.53 0.50 0.46 0.47 0.47 0.41 0.38 0.37 0.31 0.26 0.24 0.24 0.23
0.09 0.14 0.19 0.25 0.29 0.33 0.37 0.48 0.62 0.73 0.77 0.78 0.84 0.82 0.86 0.87 0.89 0.84 0.84 0.90 0.96 0.88 0.79 0.76 0.77 0.75 0.69 0.65 0.60 0.59 0.62 0.60 0.53 0.50 0.54 0.55 0.52 0.44 0.36 0.30 0.25 0.25 0.25
0.11 0.15 0.19 0.22 0.25 0.30 0.34 0.40 0.56 0.74 0.80 0.78 0.88 0.95 1.02 1.07 1.05 0.98 0.91 0.91 0.94 0.92 0.85 0.78 0.71 0.74 0.73 0.69 0.62 0.59 0.60 0.63 0.58 0.49 0.59 0.70 0.60 0.42 0.35 0.32 0.28 0.26 0.26
0.13 0.18 0.21 0.25 0.27 0.32 0.36 0.38 0.47 0.64 0.84 0.86 0.88 0.94 0.99 1.01 1.06 0.99 0.92 0.90 0.94 0.97 0.92 0.88 0.80 0.73 0.71 0.67 0.63 0.62 0.61 0.66 0.67 0.57 0.51 0.53 0.55 0.60 0.48 0.35 0.34 0.33 0.31
0.15 0.20 0.24 0.29 0.32 0.39 0.46 0.45 0.50 0.58 0.78 0.83 0.83 0.88 0.92 0.94 1.02 1.05 0.98 0.95 0.98 1.02 1.02 0.99 0.93 0.87 0.78 0.69 0.64 0.64 0.66 0.68 0.69 0.64 0.56 0.50 0.44 0.46 0.59 0.48 0.41 0.45 0.43
0.17 0.21 0.27 0.34 0.39 0.44 0.55 0.55 0.58 0.58 0.69 0.86 0.84 0.81 0.85 0.88 0.94 0.99 1.05 1.05 1.03 1.04 1.03 1.03 0.99 0.93 0.92 0.83 0.73 0.68 0.69 0.69 0.68 0.68 0.65 0.64 0.62 0.52 0.55 0.55 0.44 0.44 0.43
0.19 0.23 0.30 0.39 0.40 0.43 0.57 0.59 0.60 0.62 0.63 0.78 0.85 0.79 0.79 0.81 0.82 0.90 0.94 1.00 1.06 1.05 1.04 1.06 1.04 0.99 0.93 0.90 0.84 0.79 0.77 0.75 0.76 0.78 0.76 0.70 0.65 0.61 0.66 0.71 0.60 0.50 0.43
0.18 0.23 0.27 0.34 0.39 0.39 0.50 0.60 0.63 0.65 0.64 0.72 0.85 0.87 0.85 0.86 0.81 0.86 0.92 0.92 0.94 0.96 0.92 0.95 0.97 0.94 0.88 0.86 0.86 0.86 0.83 0.84 0.87 0.85 0.86 0.83 0.73 0.71 0.78 0.88 0.96 0.86 0.59
0.21 0.23 0.26 0.29 0.32 0.38 0.45 0.52 0.64 0.70 0.70 0.70 0.83 0.99 1.04 0.96 0.86 0.83 0.87 0.89 0.87 0.89 0.90 0.89 0.90 0.85 0.81 0.78 0.78 0.80 0.79 0.84 0.87 0.89 0.91 0.92 0.84 0.82 0.84 0.90 1.08 1.32 1.10
0.25 0.28 0.28 0.31 0.32 0.34 0.41 0.46 0.58 0.69 0.74 0.71 0.78 0.93 1.15 1.17 1.02 0.96 0.86 0.84 0.83 0.84 0.85 0.88 0.86 0.86 0.80 0.78 0.78 0.75 0.72 0.78 0.81 0.84 0.90 0.92 0.88 0.84 0.83 0.90 0.94 1.07 1.22
0.20 0.24 0.27 0.34 0.37 0.36 0.40 0.45 0.51 0.61 0.69 0.67 0.72 0.82 0.99 1.21 1.23 1.13 1.00 0.86 0.82 0.79 0.78 0.81 0.82 0.83 0.84 0.84 0.88 0.83 0.75 0.77 0.80 0.82 0.85 0.85 0.86 0.90 0.85 0.88 0.92 0.93 0.99
0.17 0.20 0.24 0.32 0.37 0.38 0.40 0.43 0.48 0.56 0.63 0.64 0.68 0.77 0.85 1.02 1.24 1.19 1.05 0.93 0.86 0.83 0.82 0.81 0.84 0.83 0.84 0.87 0.91 0.87 0.79 0.77 0.79 0.80 0.81 0.80 0.81 0.85 0.82 0.82 0.84 0.82 0.78
0.17 0.19 0.25 0.30 0.34 0.40 0.43 0.42 0.45 0.52 0.57 0.64 0.68 0.70 0.78 0.87 0.98 1.13 1.08 0.99 0.92 0.88 0.84 0.85 0.86 0.91 0.92 0.89 0.85 0.87 0.84 0.79 0.78 0.80 0.82 0.80 0.83 0.85 0.79 0.80 0.77 0.70 0.66
0.17 0.22 0.25 0.27 0.32 0.39 0.46 0.45 0.48 0.51 0.50 0.57 0.65 0.64 0.65 0.73 0.78 0.90 1.08 1.09 1.00 0.92 0.84 0.81 0.85 0.95 1.11 1.10 0.99 1.02 0.95 0.84 0.79 0.74 0.74 0.78 0.89 0.90 0.87 0.89 0.78 0.71 0.75
0.17 0.23 0.27 0.27 0.33 0.41 0.50 0.53 0.49 0.45 0.42 0.47 0.55 0.61 0.65 0.72 0.75 0.76 0.87 1.05 1.02 0.89 0.81 0.77 0.80 0.90 1.24 1.60 1.53 1.44 1.20 0.93 0.77 0.69 0.70 0.77 0.90 0.95 1.07 1.16 1.03 1.00 1.09
0.20 0.23 0.28 0.28 0.34 0.41 0.51 0.60 0.53 0.47 0.40 0.43 0.50 0.56 0.65 0.78 0.80 0.75 0.79 0.89 0.97 0.94 0.85 0.79 0.77 0.81 1.08 1.65 1.75 1.46 1.08 0.90 0.79 0.73 0.69 0.71 0.83 0.86 0.94 1.07 1.14 1.21 1.34
0.25 0.26 0.30 0.33 0.38 0.41 0.49 0.57 0.55 0.51 0.44 0.44 0.49 0.54 0.58 0.72 0.79 0.79 0.83 0.85 0.89 0.97 0.98 0.87 0.77 0.74 0.89 1.44 1.56 1.27 0.95 0.82 0.77 0.71 0.69 0.69 0.76 0.83 0.82 0.91 0.94 0.97 1.10
0.26 0.27 0.32 0.38 0.38 0.40 0.42 0.48 0.51 0.49 0.47 0.47 0.53 0.57 0.55 0.60 0.73 0.83 0.84 0.83 0.84 0.87 0.94 0.92 0.83 0.75 0.78 1.25 1.41 1.17 0.91 0.79 0.72 0.65 0.66 0.64 0.67 0.78 0.97 0.97 0.92 0.82 0.85
0.26 0.28 0.32 0.37 0.37 0.37 0.36 0.43 0.48 0.47 0.48 0.54 0.57 0.58 0.53 0.54 0.64 0.73 0.80 0.82 0.82 0.78 0.80 0.84 0.82 0.77 0.74 1.02 1.27 1.12 0.89 0.82 0.74 0.63 0.60 0.60 0.62 0.79 1.05 1.06 0.94 0.77 0.69
0.23 0.26 0.30 0.31 0.34 0.37 0.36 0.41 0.45 0.41 0.46 0.49 0.56 0.53 0.47 0.44 0.45 0.55 0.71 0.78 0.79 0.75 0.73 0.75 0.76 0.71 0.66 0.85 1.10 1.12 0.89 0.80 0.75 0.68 0.62 0.67 0.77 0.91 1.05 1.00 0.97 1.03 0.85
0.19 0.22 0.26 0.28 0.35 0.38 0.34 0.38 0.43 0.42 0.44 0.48 0.53 0.48 0.44 0.45 0.44 0.50 0.63 0.72 0.80 0.82 0.75 0.72 0.74 0.70 0.67 0.77 0.93 1.13 0.95 0.80 0.75 0.75 0.71 0.65 0.83 0.91 0.97 1.03 1.01 1.22 1.15
0.16 0.16 0.20 0.24 0.30 0.33 0.32 0.38 0.44 0.44 0.46 0.48 0.44 0.44 0.46 0.47 0.48 0.51 0.59 0.70 0.79 0.85 0.80 0.72 0.71 0.69 0.68 0.76 0.89 1.06 1.06 0.96 0.80 0.72 0.62 0.64 0.84 0.93 1.00 0.97 1.03 1.15 1.13
0.18 0.17 0.19 0.21 0.27 0.30 0.32 0.39 0.44 0.42 0.44 0.44 0.42 0.40 0.44 0.46 0.48 0.54 0.61 0.70 0.77 0.81 0.80 0.72 0.68 0.67 0.64 0.74 0.93 0.91 0.95 0.99 0.85 0.72 0.78 0.84 0.93 0.94 0.86 0.88 0.96 0.96 0.92
0.18 0.18 0.20 0.22 0.28 0.31 0.31 0.37 0.42 0.38 0.36 0.37 0.40 0.39 0.43 0.49 0.52 0.57 0.61 0.66 0.76 0.83 0.75 0.69 0.65 0.62 0.65 0.82 0.96 0.91 0.89 0.96 0.94 0.89 0.92 0.98 0.96 0.85 0.75 0.76 0.77 0.75 0.82
0.21 0.20 0.22 0.23 0.29 0.32 0.35 0.38 0.37 0.35 0.34 0.34 0.40 0.45 0.48 0.52 0.57 0.60 0.62 0.65 0.68 0.82 0.79 0.68 0.67 0.71 0.80 0.96 1.06 1.04 0.97 0.96 0.98 1.10 1.16 1.07 0.97 0.90 0.78 0.66 0.59 0.62 0.75
0.25 0.23 0.23 0.25 0.30 0.34 0.40 0.40 0.35 0.32 0.34 0.38 0.41 0.48 0.52 0.54 0.55 0.55 0.58 0.66 0.68 0.73 0.71 0.67 0.67 0.67 0.81 0.94 0.99 1.05 1.06 1.08 1.15 1.22 1.16 0.94 0.81 0.76 0.71 0.66 0.62 0.58 0.60

GEFSMW_prec_meanprecacc_210.txt.gz
Total_Precipitation_Accumulation
0.08 0.13 0.19 0.27 0.31 0.32 0.38 0.50 0.62 0.75 0.81 0.87 0.86 0.84 0.91 0.91 0.85 0.78 0.81 0.90 0.85 0.76 0.76 0.76 0.75 0.72 0.69 0.66 0.61 0.56 0.53 0.50 0.46 0.48 0.47 0.42 0.39 0.38 0.32 0.27 0.25 0.25 0.24
0.09 0.14 0.19 0.25 0.29 0.33 0.37 0.49 0.63 0.74 0.78 0.78 0.84 0.83 0.86 0.88 0.90 0.86 0.85 0.92 0.97 0.90 0.81 0.78 0.78 0.76 0.70 0.66 0.61 0.60 0.64 0.62 0.54 0.51 0.55 0.56 0.53 0.44 0.37 0.32 0.27 0.26 0.27
0.11 0.15 0.19 0.22 0.25 0.30 0.34 0.40 0.56 0.74 0.81 0.79 0.89 0.96 1.03 1.08 1.07 1.00 0.92 0.92 0.95 0.93 0.87 0.79 0.73 0.76 0.74 0.70 0.64 0.61 0.61 0.65 0.60 0.51 0.62 0.73 0.63 0.44 0.36 0.33 0.29 0.27 0.28
0.13 0.18 0.21 0.25 0.27 0.32 0.36 0.38 0.48 0.64 0.84 0.87 0.89 0.95 0.99 1.02 1.06 0.99 0.92 0.91 0.95 0.98 0.93 0.89 0.82 0.75 0.72 0.68 0.65 0.64 0.63 0.68 0.69 0.59 0.53 0.55 0.58 0.62 0.50 0.36 0.35 0.35 0.32
0.15 0.20 0.24 0.29 0.32 0.39 0.46 0.45 0.50 0.58 0.78 0.84 0.84 0.89 0.92 0.94 1.02 1.05 0.99 0.96 0.99 1.03 1.03 1.00 0.95 0.89 0.79 0.70 0.65 0.65 0.68 0.70 0.71 0.66 0.58 0.52 0.46 0.48 0.62 0.50 0.43 0.47 0.45
0.18 0.22 0.27 0.34 0.39 0.44 0.55 0.55 0.58 0.58 0.70 0.86 0.84 0.81 0.86 0.88 0.94 1.00 1.05 1.06 1.04 1.05 1.04 1.04 1.00 0.95 0.93 0.84 0.74 0.70 0.71 0.70 0.70 0.71 0.67 0.65 0.64 0.56 0.59 0.57 0.46 0.45 0.45
0.20 0.25 0.31 0.39 0.40 0.43 0.57 0.59 0.60 0.62 0.63 0.78 0.85 0.80 0.80 0.82 0.83 0.90 0.94 1.00 1.06 1.05 1.05 1.07 1.05 1.00 0.94 0.91 0.85 0.82 0.79 0.77 0.79 0.81 0.78 0.71 0.67 0.64 0.70 0.76 0.63 0.52 0.46
0.18 0.23 0.27 0.34 0.39 0.39 0.50 0.60 0.63 0.65 0.64 0.72 0.85 0.87 0.85 0.87 0.82 0.86 0.92 0.92 0.95 0.96 0.92 0.96 0.98 0.95 0.90 0.87 0.87 0.87 0.84 0.85 0.89 0.87 0.87 0.85 0.76 0.74 0.81 0.90 0.99 0.89 0.62
0.21 0.23 0.26 0.30 0.32 0.38 0.45 0.52 0.64 0.70 0.70 0.70 0.83 0.99 1.04 0.96 0.87 0.83 0.87 0.89 0.88 0.89 0.91 0.90 0.90 0.86 0.82 0.79 0.79 0.80 0.79 0.84 0.88 0.90 0.93 0.94 0.86 0.85 0.86 0.92 1.11 1.35 1.14
0.25 0.28 0.28 0.31 0.32 0.34 0.41 0.46 0.58 0.69 0.74 0.71 0.78 0.93 1.15 1.17 1.03 0.96 0.86 0.84 0.83 0.84 0.86 0.89 0.87 0.86 0.81 0.79 0.79 0.75 0.73 0.79 0.82 0.85 0.91 0.93 0.89 0.86 0.85 0.92 0.96 1.09 1.25
0.20 0.25 0.27 0.34 0.37 0.36 0.40 0.45 0.51 0.61 0.69 0.67 0.72 0.82 0.99 1.22 1.23 1.13 1.01 0.87 0.82 0.80 0.79 0.81 0.83 0.83 0.84 0.84 0.88 0.83 0.75 0.78 0.80 0.83 0.86 0.86 0.87 0.91 0.87 0.90 0.93 0.94 1.00
0.17 0.20 0.24 0.32 0.37 0.38 0.40 0.43 0.48 0.56 0.63 0.64 0.68 0.77 0.85 1.03 1.25 1.19 1.06 0.93 0.86 0.83 0.82 0.82 0.85 0.83 0.85 0.87 0.91 0.88 0.79 0.78 0.80 0.81 0.82 0.81 0.82 0.86 0.83 0.83 0.85 0.83 0.79
0.17 0.19 0.25 0.30 0.34 0.40 0.43 0.42 0.45 0.52 0.57 0.64 0.68 0.70 0.79 0.87 0.98 1.13 1.08 0.99 0.93 0.88 0.84 0.85 0.87 0.91 0.92 0.89 0.85 0.88 0.84 0.80 0.79 0.81 0.84 0.81 0.84 0.86 0.80 0.80 0.78 0.71 0.66
0.17 0.22 0.26 0.27 0.32 0.39 0.46 0.45 0.48 0.51 0.50 0.57 0.65 0.64 0.65 0.73 0.78 0.90 1.08 1.09 1.00 0.92 0.84 0.81 0.85 0.96 1.11 1.10 0.99 1.03 0.96 0.86 0.80 0.75 0.75 0.80 0.90 0.90 0.88 0.90 0.79 0.72 0.76
0.17 0.24 0.27 0.28 0.33 0.41 0.50 0.53 0.49 0.45 0.42 0.47 0.55 0.61 0.65 0.72 0.75 0.76 0.87 1.05 1.02 0.89 0.81 0.78 0.81 0.91 1.25 1.60 1.54 1.45 1.21 0.94 0.78 0.71 0.72 0.79 0.92 0.97 1.08 1.17 1.04 1.02 1.11
0.20 0.24 0.29 0.28 0.34 0.41 0.51 0.60 0.53 0.47 0.40 0.43 0.50 0.56 0.65 0.78 0.80 0.75 0.79 0.89 0.98 0.94 0.85 0.80 0.78 0.81 1.08 1.66 1.76 1.47 1.09 0.91 0.80 0.74 0.70 0.73 0.85 0.88 0.96 1.09 1.17 1.24 1.36
0.25 0.27 0.30 0.34 0.39 0.42 0.49 0.58 0.55 0.51 0.44 0.44 0.50 0.55 0.58 0.72 0.79 0.79 0.83 0.86 0.90 0.97 0.98 0.87 0.78 0.74 0.89 1.45 1.58 1.28 0.96 0.82 0.78 0.73 0.72 0.72 0.79 0.85 0.84 0.92 0.95 0.98 1.12
0.26 0.28 0.32 0.38 0.38 0.41 0.43 0.49 0.51 0.49 0.47 0.47 0.53 0.57 0.55 0.60 0.73 0.83 0.84 0.85 0.85 0.87 0.94 0.93 0.84 0.76 0.80 1.27 1.43 1.18 0.93 0.81 0.73 0.67 0.69 0.68 0.71 0.81 0.99 0.98 0.93 0.83 0.86
0.26 0.28 0.32 0.37 0.38 0.37 0.37 0.43 0.49 0.47 0.49 0.54 0.57 0.58 0.53 0.54 0.64 0.73 0.80 0.83 0.84 0.79 0.81 0.85 0.84 0.79 0.76 1.04 1.29 1.14 0.91 0.84 0.75 0.66 0.64 0.64 0.65 0.83 1.08 1.08 0.95 0.78 0.70
0.23 0.27 0.30 0.31 0.34 0.37 0.36 0.42 0.46 0.42 0.46 0.50 0.56 0.53 0.48 0.45 0.45 0.56 0.71 0.78 0.80 0.76 0.75 0.77 0.79 0.74 0.68 0.87 1.12 1.14 0.91 0.82 0.77 0.72 0.65 0.71 0.81 0.95 1.09 1.02 0.98 1.05 0.86
0.19 0.23 0.26 0.29 0.36 0.38 0.35 0.39 0.44 0.43 0.46 0.49 0.54 0.49 0.45 0.45 0.44 0.50 0.64 0.73 0.80 0.82 0.76 0.73 0.75 0.72 0.69 0.79 0.96 1.15 0.98 0.82 0.77 0.78 0.74 0.69 0.87 0.95 1.00 1.05 1.02 1.23 1.16
0.16 0.16 0.20 0.25 0.31 0.34 0.34 0.39 0.45 0.46 0.48 0.50 0.47 0.46 0.47 0.48 0.49 0.51 0.59 0.70 0.80 0.86 0.80 0.72 0.71 0.70 0.70 0.78 0.92 1.09 1.09 0.98 0.82 0.74 0.64 0.67 0.86 0.95 1.02 0.99 1.05 1.17 1.14
0.18 0.17 0.19 0.22 0.28 0.31 0.33 0.40 0.46 0.43 0.46 0.46 0.44 0.43 0.46 0.47 0.49 0.54 0.61 0.70 0.78 0.82 0.80 0.73 0.68 0.67 0.65 0.77 0.97 0.95 0.99 1.02 0.87 0.74 0.80 0.85 0.94 0.95 0.88 0.90 0.98 0.98 0.93
0.18 0.18 0.20 0.23 0.29 0.32 0.33 0.38 0.43 0.39 0.38 0.39 0.42 0.40 0.44 0.49 0.53 0.57 0.62 0.67 0.76 0.84 0.76 0.69 0.65 0.62 0.66 0.83 0.99 0.94 0.91 0.97 0.96 0.90 0.93 0.99 0.97 0.87 0.77 0.78 0.79 0.76 0.84
0.21 0.20 0.22 0.23 0.30 0.34 0.36 0.40 0.38 0.36 0.35 0.35 0.42 0.47 0.49 0.54 0.58 0.61 0.63 0.66 0.68 0.83 0.80 0.69 0.68 0.72 0.81 0.97 1.08 1.05 0.99 0.98 0.99 1.10 1.17 1.09 0.99 0.93 0.80 0.69 0.62 0.64 0.77
0.25 0.23 0.24 0.26 0.31 0.35 0.42 0.42 0.36 0.34 0.36 0.39 0.42 0.49 0.54 0.55 0.56 0.56 0.59 0.67 0.69 0.73 0.72 0.68 0.68 0.68 0.83 0.96 1.01 1.07 1.09 1.11 1.18 1.24 1.18 0.97 0.84 0.79 0.75 0.70 0.65 0.61 0.63

GEFSMW_prec_meanprecacc_216.txt.gz
Total_Precipitation_Accumulation
0.08 0.13 0.19 0.27 0.32 0.32 0.38 0.51 0.63 0.76 0.81 0.88 0.87 0.85 0.92 0.93 0.87 0.80 0.83 0.94 0.91 0.83 0.84 0.82 0.79 0.75 0.71 0.67 0.62 0.57 0.54 0.51 0.47 0.48 0.47 0.42 0.39 0.38 0.32 0.27 0.25 0.25 0.24
0.09 0.14 0.19 0.25 0.29 0.33 0.38 0.49 0.63 0.74 0.78 0.78 0.84 0.83 0.87 0.89 0.92 0.88 0.88 0.95 1.02 0.96 0.88 0.86 0.86 0.82 0.74 0.69 0.64 0.62 0.65 0.62 0.54 0.52 0.56 0.57 0.53 0.45 0.38 0.33 0.28 0.27 0.28
0.11 0.15 0.19 0.23 0.25 0.30 0.34 0.40 0.56 0.75 0.81 0.79 0.89 0.97 1.04 1.09 1.08 1.01 0.94 0.96 0.99 0.97 0.90 0.83 0.78 0.82 0.80 0.74 0.68 0.64 0.64 0.66 0.61 0.53 0.63 0.75 0.65 0.46 0.38 0.35 0.31 0.28 0.29
0.13 0.18 0.21 0.25 0.27 0.32 0.36 0.38 0.48 0.64 0.84 0.87 0.89 0.95 1.00 1.02 1.06 1.00 0.93 0.93 0.99 1.02 0.96 0.92 0.84 0.78 0.77 0.72 0.68 0.66 0.65 0.70 0.70 0.60 0.54 0.58 0.61 0.65 0.52 0.38 0.36 0.36 0.34
0.16 0.20 0.24 0.29 0.33 0.39 0.46 0.46 0.50 0.58 0.78 0.84 0.84 0.89 0.93 0.95 1.02 1.06 1.00 0.97 1.01 1.07 1.07 1.03 0.97 0.91 0.82 0.72 0.67 0.67 0.69 0.71 0.72 0.67 0.60 0.54 0.48 0.50 0.64 0.52 0.44 0.49 0.46
0.18 0.22 0.27 0.35 0.39 0.44 0.55 0.55 0.58 0.58 0.70 0.86 0.85 0.82 0.86 0.89 0.94 1.00 1.06 1.07 1.05 1.06 1.06 1.06 1.01 0.96 0.94 0.86 0.75 0.71 0.71 0.71 0.71 0.72 0.69 0.67 0.66 0.58 0.61 0.60 0.48 0.48 0.47
0.20 0.25 0.31 0.39 0.40 0.43 0.57 0.59 0.60 0.63 0.64 0.79 0.85 0.80 0.80 0.83 0.84 0.91 0.94 1.01 1.07 1.06 1.06 1.08 1.06 1.01 0.96 0.92 0.87 0.84 0.81 0.78 0.80 0.82 0.79 0.73 0.69 0.66 0.73 0.80 0.67 0.55 0.48
0.18 0.23 0.28 0.35 0.39 0.40 0.50 0.60 0.63 0.65 0.64 0.72 0.86 0.88 0.85 0.87 0.82 0.87 0.93 0.93 0.95 0.97 0.93 0.96 0.99 0.96 0.91 0.89 0.89 0.89 0.85 0.86 0.90 0.88 0.88 0.86 0.77 0.76 0.84 0.94 1.03 0.92 0.64
0.21 0.24 0.26 0.30 0.32 0.38 0.45 0.52 0.64 0.70 0.70 0.70 0.83 0.99 1.04 0.96 0.87 0.83 0.88 0.90 0.88 0.90 0.92 0.91 0.91 0.86 0.83 0.80 0.80 0.81 0.81 0.85 0.88 0.91 0.94 0.95 0.87 0.86 0.87 0.94 1.13 1.37 1.16
0.25 0.28 0.28 0.31 0.32 0.34 0.41 0.46 0.58 0.69 0.74 0.71 0.78 0.93 1.15 1.17 1.03 0.97 0.87 0.85 0.85 0.85 0.86 0.90 0.88 0.87 0.82 0.80 0.80 0.76 0.74 0.79 0.82 0.85 0.92 0.94 0.91 0.88 0.87 0.95 1.00 1.12 1.27
0.20 0.25 0.27 0.34 0.37 0.36 0.40 0.45 0.51 0.61 0.69 0.67 0.72 0.82 0.99 1.22 1.23 1.13 1.01 0.88 0.83 0.81 0.80 0.82 0.84 0.84 0.85 0.85 0.89 0.84 0.76 0.78 0.81 0.83 0.86 0.87 0.88 0.93 0.89 0.93 0.97 0.96 1.02
0.17 0.20 0.24 0.32 0.37 0.38 0.40 0.43 0.48 0.56 0.63 0.65 0.68 0.77 0.85 1.03 1.25 1.19 1.06 0.94 0.87 0.84 0.83 0.82 0.85 0.84 0.86 0.88 0.92 0.89 0.80 0.78 0.80 0.82 0.82 0.82 0.82 0.87 0.84 0.85 0.86 0.84 0.80
0.17 0.20 0.25 0.30 0.34 0.40 0.43 0.42 0.45 0.52 0.57 0.64 0.68 0.70 0.79 0.87 0.98 1.13 1.09 0.99 0.93 0.88 0.85 0.85 0.87 0.92 0.93 0.90 0.86 0.89 0.85 0.80 0.79 0.81 0.84 0.82 0.84 0.87 0.81 0.82 0.79 0.72 0.67
0.18 0.23 0.26 0.28 0.32 0.39 0.46 0.45 0.48 0.51 0.50 0.57 0.65 0.64 0.65 0.73 0.78 0.90 1.08 1.09 1.01 0.92 0.84 0.82 0.86 0.96 1.12 1.11 1.00 1.04 0.97 0.86 0.80 0.76 0.75 0.80 0.91 0.91 0.89 0.91 0.80 0.74 0.77
0.17 0.24 0.27 0.28 0.33 0.42 0.50 0.53 0.49 0.45 0.42 0.47 0.55 0.61 0.65 0.72 0.75 0.76 0.87 1.05 1.03 0.90 0.81 0.78 0.81 0.91 1.25 1.61 1.55 1.46 1.22 0.95 0.79 0.71 0.72 0.79 0.93 0.98 1.10 1.19 1.06 1.03 1.12
0.21 0.24 0.29 0.28 0.34 0.42 0.51 0.60 0.53 0.47 0.40 0.43 0.50 0.56 0.65 0.78 0.80 0.75 0.79 0.89 0.98 0.94 0.86 0.80 0.78 0.82 1.09 1.66 1.78 1.48 1.09 0.91 0.81 0.75 0.71 0.73 0.85 0.89 0.97 1.11 1.18 1.25 1.37
0.26 0.27 0.30 0.34 0.39 0.42 0.49 0.58 0.56 0.51 0.44 0.44 0.50 0.55 0.58 0.72 0.79 0.79 0.83 0.86 0.90 0.97 0.99 0.87 0.78 0.75 0.90 1.45 1.59 1.29 0.96 0.83 0.78 0.74 0.72 0.72 0.79 0.86 0.85 0.93 0.96 0.99 1.13
0.27 0.28 0.32 0.38 0.39 0.41 0.43 0.49 0.52 0.50 0.48 0.48 0.53 0.58 0.55 0.60 0.73 0.83 0.84 0.85 0.86 0.88 0.94 0.93 0.84 0.77 0.80 1.27 1.43 1.19 0.93 0.81 0.73 0.68 0.70 0.69 0.72 0.83 1.01 1.00 0.94 0.84 0.87
0.27 0.29 0.32 0.37 0.38 0.38 0.37 0.44 0.50 0.48 0.50 0.55 0.58 0.58 0.53 0.54 0.64 0.73 0.81 0.83 0.84 0.80 0.81 0.85 0.84 0.79 0.76 1.05 1.29 1.15 0.91 0.84 0.76 0.67 0.66 0.67 0.67 0.86 1.12 1.10 0.97 0.80 0.72
0.23 0.27 0.30 0.31 0.34 0.37 0.37 0.42 0.47 0.43 0.47 0.51 0.57 0.54 0.48 0.45 0.46 0.56 0.71 0.78 0.80 0.77 0.75 0.77 0.79 0.74 0.68 0.88 1.13 1.15 0.91 0.83 0.78 0.74 0.69 0.76 0.84 0.98 1.12 1.06 1.01 1.08 0.89
0.20 0.23 0.26 0.29 0.36 0.39 0.35 0.39 0.45 0.45 0.46 0.50 0.55 0.50 0.46 0.46 0.45 0.51 0.64 0.73 0.81 0.83 0.76 0.73 0.75 0.72 0.69 0.79 0.96 1.16 0.99 0.84 0.80 0.80 0.76 0.72 0.90 0.98 1.04 1.09 1.07 1.27 1.19
0.17 0.16 0.20 0.25 0.31 0.34 0.34 0.40 0.46 0.47 0.49 0.50 0.47 0.47 0.48 0.48 0.49 0.52 0.60 0.71 0.80 0.86 0.81 0.72 0.72 0.70 0.70 0.79 0.93 1.10 1.11 1.00 0.83 0.75 0.66 0.69 0.89 0.97 1.04 1.02 1.09 1.20 1.17
0.18 0.17 0.19 0.22 0.28 0.31 0.34 0.41 0.47 0.44 0.47 0.47 0.45 0.43 0.46 0.48 0.49 0.55 0.62 0.71 0.78 0.82 0.81 0.73 0.69 0.68 0.66 0.78 0.98 0.97 1.01 1.05 0.89 0.75 0.82 0.88 0.98 0.97 0.90 0.92 1.00 0.99 0.94
0.19 0.18 0.20 0.23 0.29 0.32 0.33 0.39 0.43 0.40 0.38 0.39 0.42 0.40 0.44 0.49 0.53 0.58 0.62 0.67 0.77 0.84 0.77 0.70 0.66 0.63 0.66 0.84 1.00 0.95 0.93 0.99 0.98 0.92 0.95 1.01 0.99 0.89 0.78 0.79 0.80 0.77 0.85
0.22 0.21 0.22 0.24 0.30 0.34 0.37 0.40 0.39 0.37 0.36 0.36 0.42 0.48 0.50 0.54 0.58 0.61 0.63 0.67 0.69 0.83 0.81 0.70 0.69 0.73 0.82 0.98 1.10 1.07 1.00 0.99 1.00 1.11 1.18 1.10 1.00 0.93 0.81 0.69 0.62 0.65 0.78
0.26 0.24 0.24 0.26 0.31 0.36 0.42 0.43 0.37 0.34 0.36 0.40 0.43 0.50 0.54 0.56 0.57 0.56 0.59 0.68 0.70 0.74 0.73 0.69 0.70 0.69 0.84 0.97 1.02 1.08 1.10 1.12 1.19 1.25 1.19 0.98 0.84 0.80 0.76 0.71 0.67 0.62 0.64